Pearl River, LA

4:57 AM CST on January 19, 2017 (GMT -0600)
Slidell

Weather History for KASD - October, 2013

Change the Weather History Date:

Friday, October 18, 2013

  Actual Average (KNEW) Record (KNEW)
Temperature  
Mean Temperature 67 °F -  
Max Temperature 75 °F 78 °F 89 °F (2016)
Min Temperature 61 °F 64 °F 44 °F (1991)
Cooling Degree Days 2    
Growing Degree Days 17 (Base 50)    
Moisture  
Dew Point 58 °F    
Average Humidity 76    
Maximum Humidity 90    
Minimum Humidity 53    
Precipitation  
Precipitation 0.01 in - - ()
Sea Level Pressure  
Sea Level Pressure 29.98 in    
Wind  
Wind Speed 5 mph (NNE)    
Max Wind Speed 10 mph    
Max Gust Speed -    
Visibility 10 miles    
Events Rain    
Averages and records for this station are not official NWS values.
T = Trace of Precipitation, MM = Missing Value Source: NWS Daily Summary

Daily Weather History Graph

Daily Weather History Graph

Search for Another Location

Airport or City:

Trip Planner

Search our weather history database for the weather conditions in past years. The results will help you decide how hot, cold, wet, or windy it might be!

Date:

Astronomy

Oct. 18, 2013 Rise Set
Actual Time 7:03 AM CDT 6:24 PM CDT
Civil Twilight 6:39 AM CDT 6:48 PM CDT
Nautical Twilight 6:11 AM CDT 7:16 PM CDT
Astronomical Twilight 5:43 AM CDT 7:44 PM CDT
Moon 6:16 PM CDT (10/18) 6:39 AM CDT (10/18)
Length of Visible Light 12h 09m
Length of Day
11h 21m
Full, 100% of the Moon is Illuminated
Oct 18
Full
Oct 18
Full
Oct 26
Last Quarter
Nov 3
New
Nov 9
First Quarter

Hourly Weather History & Observations

Time (CDT) Temp. Dew Point Humidity Pressure Visibility Wind Dir Wind Speed Gust Speed Precip Events Conditions
12:53 AM 64.9 °F 60.1 °F 84% 29.98 in 10.0 mi North 6.9 mph - N/A   Overcast
1:53 AM 64.9 °F 59.0 °F 81% 29.98 in 10.0 mi North 8.1 mph - N/A   Overcast
2:53 AM 64.9 °F 57.9 °F 78% 29.98 in 10.0 mi NNE 8.1 mph - N/A   Overcast
3:12 AM 64.4 °F 59.0 °F 83% 29.98 in 10.0 mi North 4.6 mph - N/A   Overcast
3:53 AM 64.0 °F 59.0 °F 84% 29.98 in 10.0 mi North 6.9 mph - N/A   Overcast
4:53 AM 64.0 °F 57.9 °F 80% 29.99 in 10.0 mi North 4.6 mph - N/A   Overcast
5:19 AM 62.6 °F 57.2 °F 82% 29.99 in 10.0 mi Calm Calm - N/A   Mostly Cloudy
5:53 AM 62.1 °F 57.9 °F 86% 29.99 in 10.0 mi Calm Calm - N/A   Mostly Cloudy
6:53 AM 61.0 °F 57.9 °F 90% 30.01 in 10.0 mi North 3.5 mph - N/A   Clear
7:53 AM 61.0 °F 57.9 °F 90% 30.03 in 10.0 mi North 4.6 mph - N/A   Scattered Clouds
8:53 AM 64.0 °F 57.9 °F 80% 30.04 in 10.0 mi NNE 6.9 mph - N/A   Partly Cloudy
9:53 AM 68.0 °F 55.9 °F 65% 30.04 in 10.0 mi NNE 9.2 mph - N/A   Clear
10:53 AM 70.0 °F 55.9 °F 61% 30.04 in 10.0 mi NE 10.4 mph - N/A   Clear
11:53 AM 71.1 °F 55.9 °F 59% 30.02 in 10.0 mi NE 5.8 mph - N/A   Clear
12:53 PM 73.0 °F 57.0 °F 57% 30.00 in 10.0 mi Variable 6.9 mph - N/A   Clear
1:53 PM 73.0 °F 55.0 °F 53% 29.96 in 10.0 mi North 10.4 mph - N/A   Clear
2:53 PM 73.0 °F 55.9 °F 55% 29.94 in 10.0 mi NE 5.8 mph - N/A   Clear
3:53 PM 71.1 °F 55.9 °F 59% 29.93 in 10.0 mi North 5.8 mph - N/A   Clear
4:53 PM 70.0 °F 60.1 °F 71% 29.95 in 10.0 mi Calm Calm - N/A   Scattered Clouds
5:53 PM 66.9 °F 60.1 °F 79% 29.93 in 10.0 mi ENE 3.5 mph - 0.00 in   Scattered Clouds
6:53 PM 66.0 °F 60.1 °F 81% 29.95 in 10.0 mi Calm Calm - N/A   Mostly Cloudy
7:53 PM 64.9 °F 60.1 °F 84% 29.97 in 10.0 mi Calm Calm - 0.00 in Rain Light Rain
8:53 PM 64.9 °F 60.1 °F 84% 29.99 in 10.0 mi Calm Calm - 0.00 in   Mostly Cloudy
9:53 PM 64.9 °F 59.0 °F 81% 29.99 in 10.0 mi Calm Calm - 0.00 in Rain Light Rain
10:53 PM 64.0 °F 60.1 °F 87% 29.99 in 10.0 mi North 4.6 mph - 0.00 in   Overcast
11:53 PM 63.0 °F 59.0 °F 87% 29.95 in 10.0 mi ENE 3.5 mph - 0.01 in   Partly Cloudy